Temperature
3 4 4 4 4 3 3 3 3 3 3 3 3 3 3 3 3 3 3 3 3 3 3 2 2 2 2 2 2 2 1 1 1 1 1 1 1 1 1 1 1 1 1
3 3 3 3 3 3 3 3 3 3 3 3 3 3 3 3 3 3 3 2 2 2 2 2 2 2 2 2 1 1 1 1 1 1 1 1 1 1 1 1 1 1 1
2 2 2 2 3 3 3 3 3 3 3 2 2 3 3 3 2 2 2 2 2 2 2 2 2 1 1 1 1 1 1 1 0 0 0 0 0 0 0 0 0 0 0
2 2 2 2 2 2 2 2 2 2 2 2 2 2 2 2 2 2 2 2 2 2 1 1 1 1 1 1 1 1 0 0 -0 -0 -0 -0 -0 -0 -1 -0 -0 -0 -0
2 2 2 2 2 2 2 2 2 2 2 2 2 2 2 2 2 2 2 1 1 1 1 1 1 1 1 0 0 0 0 -0 -1 -1 -1 -1 -1 -1 -1 -1 -1 -1 -1
1 1 1 1 1 1 2 2 2 2 1 1 2 1 1 1 1 1 1 1 1 0 0 0 0 0 0 0 0 0 -0 -0 -1 -1 -1 -1 -1 -1 -1 -1 -2 -2 -2
1 1 1 1 1 1 1 1 1 1 1 1 1 1 1 1 1 1 1 0 0 0 -0 -0 -0 -0 -0 -0 -0 -0 -1 -1 -1 -1 -1 -1 -1 -2 -2 -2 -2 -2 -2
1 0 0 0 0 0 0 1 1 1 1 1 1 1 1 1 0 0 0 -0 -0 -0 -0 -0 -0 -0 -1 -1 -1 -1 -1 -1 -1 -1 -1 -1 -2 -2 -2 -2 -2 -2 -2
-0 -0 -0 -0 -0 -0 -0 0 0 0 0 0 0 0 0 0 0 -0 -0 -1 -1 -1 -1 -1 -1 -1 -1 -1 -1 -1 -1 -1 -2 -2 -2 -2 -2 -2 -2 -2 -2 -3 -3
-0 -0 -0 -0 -0 -0 -0 -0 -0 -0 -0 -0 -0 -0 -0 -0 -1 -1 -1 -1 -1 -1 -1 -1 -1 -1 -1 -1 -1 -2 -2 -2 -2 -2 -2 -2 -2 -2 -3 -3 -3 -3 -3
-1 -1 -1 -1 -1 -1 -1 -1 -1 -1 -1 -1 -1 -1 -1 -1 -1 -1 -1 -1 -1 -2 -2 -2 -2 -2 -2 -2 -2 -2 -2 -2 -2 -2 -3 -3 -3 -3 -3 -3 -3 -3 -4
-1 -1 -1 -1 -1 -1 -1 -1 -1 -1 -1 -1 -1 -2 -2 -2 -2 -2 -2 -2 -2 -2 -2 -2 -2 -2 -2 -2 -2 -2 -2 -3 -3 -3 -3 -3 -3 -3 -4 -4 -4 -4 -4
-2 -2 -2 -2 -2 -2 -2 -2 -2 -2 -2 -2 -2 -2 -2 -2 -2 -2 -2 -2 -2 -2 -3 -3 -3 -3 -3 -3 -3 -3 -3 -3 -3 -3 -4 -4 -4 -4 -4 -4 -4 -4 -4
-2 -2 -2 -2 -2 -2 -2 -2 -2 -2 -3 -3 -3 -3 -3 -3 -3 -3 -3 -3 -3 -3 -3 -3 -3 -3 -3 -3 -3 -3 -3 -3 -4 -4 -4 -4 -4 -4 -4 -4 -4 -4 -4
-2 -2 -3 -3 -3 -2 -2 -3 -3 -3 -3 -3 -3 -3 -3 -3 -3 -3 -3 -3 -3 -3 -3 -3 -4 -4 -4 -4 -4 -4 -4 -4 -4 -4 -4 -4 -5 -5 -5 -5 -5 -5 -5
-3 -3 -3 -3 -3 -3 -3 -3 -3 -3 -3 -3 -3 -3 -3 -3 -3 -3 -3 -3 -4 -4 -4 -4 -4 -4 -4 -4 -4 -4 -4 -4 -5 -5 -5 -5 -5 -5 -5 -5 -5 -5 -5
-3 -3 -3 -3 -3 -3 -3 -3 -4 -4 -4 -4 -4 -3 -3 -3 -4 -4 -4 -4 -4 -4 -4 -4 -4 -4 -4 -5 -5 -5 -5 -5 -5 -5 -5 -5 -5 -5 -5 -6 -6 -6 -6
-4 -3 -3 -3 -3 -3 -4 -4 -4 -4 -4 -4 -4 -4 -4 -4 -4 -4 -4 -4 -4 -4 -4 -4 -5 -5 -5 -5 -5 -5 -5 -5 -5 -5 -5 -5 -6 -6 -6 -6 -6 -6 -6
-4 -4 -4 -4 -4 -4 -4 -4 -4 -4 -4 -4 -4 -4 -4 -4 -4 -4 -4 -4 -4 -4 -5 -5 -5 -5 -5 -5 -5 -5 -5 -5 -5 -6 -6 -6 -6 -6 -6 -6 -6 -6 -6
-4 -4 -4 -4 -4 -4 -4 -4 -4 -4 -5 -5 -5 -4 -5 -5 -5 -5 -5 -5 -5 -5 -5 -5 -5 -5 -5 -5 -5 -5 -5 -6 -6 -6 -6 -6 -6 -6 -6 -6 -6 -6 -6
-4 -4 -4 -5 -5 -5 -5 -5 -5 -5 -5 -5 -5 -5 -5 -5 -5 -5 -5 -5 -5 -5 -5 -5 -5 -5 -5 -5 -6 -6 -6 -6 -6 -6 -6 -6 -6 -6 -6 -7 -7 -7 -7
-5 -5 -5 -5 -5 -5 -5 -5 -5 -5 -5 -5 -5 -5 -5 -5 -5 -5 -5 -5 -5 -5 -5 -5 -5 -5 -6 -6 -6 -6 -6 -6 -6 -6 -6 -6 -6 -6 -7 -7 -7 -7 -7
-5 -5 -5 -5 -5 -5 -5 -5 -5 -5 -6 -6 -5 -5 -6 -5 -5 -5 -5 -5 -5 -5 -5 -5 -5 -6 -6 -6 -6 -6 -6 -6 -6 -6 -6 -6 -6 -7 -7 -7 -7 -7 -7
-6 -6 -6 -6 -6 -6 -6 -6 -6 -6 -6 -6 -6 -6 -6 -6 -6 -6 -6 -6 -6 -6 -5 -6 -6 -6 -6 -6 -6 -6 -6 -6 -6 -6 -6 -6 -7 -7 -7 -7 -7 -7 -7
-6 -6 -6 -6 -6 -6 -6 -6 -6 -6 -6 -6 -6 -6 -6 -6 -6 -6 -6 -6 -6 -6 -6 -6 -6 -6 -6 -6 -6 -6 -6 -6 -6 -6 -6 -7 -7 -7 -7 -7 -7 -7 -7
-6 -6 -6 -6 -6 -6 -6 -6 -6 -6 -6 -6 -6 -6 -6 -6 -6 -6 -6 -6 -6 -6 -6 -6 -6 -6 -6 -6 -6 -6 -6 -6 -6 -6 -7 -7 -7 -7 -7 -7 -7 -7 -7
Wind_Speed
5 5 5 5 5 5 5 6 6 6 6 6 6 6 5 5 5 5 5 5 5 5 4 5 5 5 4 4 4 5 5 5 7 6 5 5 7 6 6 6 7 7 7
4 5 5 4 4 5 5 5 5 6 5 5 5 5 5 5 5 5 5 5 5 5 5 5 5 4 5 4 4 5 5 5 6 7 6 6 7 7 7 6 6 7 7
4 4 4 4 4 5 5 5 5 5 5 5 5 5 5 5 5 5 5 5 5 5 5 5 6 5 5 4 5 4 4 4 5 5 6 5 6 5 6 6 6 6 6
4 4 4 4 4 4 4 4 5 5 5 5 5 5 5 5 5 5 5 5 5 5 5 6 6 6 6 5 5 5 4 4 4 4 5 5 5 6 5 5 5 5 5
4 4 4 4 3 3 3 4 4 4 5 5 5 5 5 4 4 5 5 5 5 5 5 5 5 6 6 5 5 5 4 4 4 4 5 5 5 5 5 5 5 5 5
3 3 3 3 3 3 2 3 3 4 4 4 5 5 5 4 4 5 4 5 5 5 5 5 5 5 5 6 6 6 5 5 5 5 5 6 6 6 5 5 5 5 5
3 3 3 3 3 2 2 2 3 4 4 4 4 5 5 5 4 4 4 4 4 5 4 4 4 3 4 4 4 5 5 6 7 7 7 7 6 6 6 6 6 6 6
2 3 3 2 2 2 2 2 2 2 3 3 3 3 3 3 3 3 3 4 3 4 4 4 4 4 3 3 4 4 4 4 5 6 6 6 6 6 6 6 6 6 6
2 3 3 3 2 2 3 2 2 2 2 2 2 2 3 3 3 2 2 2 2 3 3 4 4 4 4 4 3 3 4 4 3 4 5 6 7 8 6 4 4 4 5
3 3 3 3 3 3 3 2 2 2 2 1 1 2 2 3 2 2 2 2 2 2 2 3 4 5 5 4 4 4 4 4 3 3 3 4 4 4 6 5 5 5 4
2 2 2 2 3 3 2 2 2 1 1 1 1 1 2 2 2 2 2 2 2 2 2 3 3 4 5 5 4 4 4 4 4 3 3 3 3 3 3 3 4 4 5
1 1 2 2 2 2 2 2 2 2 2 1 1 1 1 1 2 2 3 3 3 3 3 3 2 3 4 4 3 3 4 4 3 3 3 3 3 3 3 3 4 4 5
1 1 2 2 2 2 3 3 2 2 2 2 2 1 1 1 1 2 3 3 2 2 2 2 3 2 2 2 2 3 3 3 3 3 3 3 3 3 3 3 3 3 4
2 2 2 2 2 2 2 3 3 3 3 2 2 2 2 2 2 1 1 1 1 1 1 1 2 2 2 2 2 2 2 2 3 3 3 3 3 3 3 3 3 3 3
2 2 2 2 2 2 2 2 3 3 3 3 3 3 3 3 2 2 1 1 1 1 1 1 1 1 1 2 2 2 2 2 2 2 3 3 3 3 3 3 3 3 3
2 2 2 2 2 2 2 1 1 2 3 3 3 3 3 4 3 3 2 2 1 2 1 2 2 2 2 2 2 2 2 2 2 3 3 3 3 3 3 3 3 3 3
2 2 2 2 2 2 2 2 1 1 1 2 2 2 3 3 3 3 2 2 2 2 2 2 2 2 2 2 2 3 3 2 2 3 3 3 3 3 3 3 3 3 3
2 3 3 2 2 2 2 2 2 2 1 1 1 2 2 2 2 2 2 2 2 2 2 2 3 2 2 2 3 3 3 3 3 3 3 3 3 3 3 3 3 3 3
2 2 2 2 2 2 2 2 2 2 2 2 1 1 1 1 2 2 2 2 2 2 2 3 3 3 3 3 3 3 3 3 3 3 3 3 3 3 3 3 3 4 4
2 2 2 2 2 2 2 2 2 2 2 2 2 2 1 1 1 1 2 2 2 3 3 3 3 3 3 3 3 3 3 3 3 3 3 3 3 3 3 4 3 3 3
2 2 2 2 2 2 2 2 2 2 2 2 2 2 2 2 2 2 2 2 3 3 3 3 3 3 3 3 3 3 4 3 3 3 3 3 3 3 3 3 3 3 3
2 2 2 2 2 2 2 2 2 2 2 2 2 2 2 2 2 2 2 2 3 3 3 3 3 3 3 4 4 4 4 4 3 3 3 3 3 3 3 3 3 3 3
2 2 2 2 2 2 2 2 2 2 2 2 2 2 2 2 2 2 2 2 2 2 3 3 3 3 3 4 4 4 4 4 4 4 3 3 3 3 3 3 3 3 3
2 2 2 2 2 2 2 2 2 2 2 2 2 2 2 2 2 3 3 2 2 2 2 3 3 4 5 4 4 4 5 5 4 4 4 4 3 3 3 3 3 3 3
2 2 2 2 2 2 2 2 2 2 2 2 2 2 2 2 2 2 2 2 2 2 3 3 3 3 4 5 4 4 5 5 5 4 4 4 3 3 3 3 2 2 2
2 2 2 2 2 2 2 2 2 2 2 2 2 2 2 2 2 2 2 2 2 2 3 3 3 4 4 4 5 5 5 5 5 5 4 3 3 2 2 2 2 2 2
Wind_Direction
221 223 226 228 226 223 221 224 223 222 218 220 223 223 222 222 220 220 223 223 227 229 234 237 244 245 243 249 242 238 244 249 258 277 284 286 288 288 290 287 284 284 281
219 223 226 227 222 221 224 226 221 217 218 217 219 220 221 220 221 222 223 223 226 228 235 238 243 245 243 248 249 245 247 251 254 268 278 283 284 288 292 292 287 283 280
224 226 225 221 220 223 224 222 217 214 214 212 214 217 220 220 222 224 224 228 230 231 234 237 242 244 244 246 250 256 258 260 256 259 272 282 288 290 293 291 286 282 278
224 229 230 225 225 227 226 221 213 209 210 211 215 218 220 221 224 225 226 232 230 233 236 238 242 243 244 247 248 252 256 258 256 257 265 276 284 289 287 289 288 285 281
225 229 235 233 231 229 222 209 208 212 216 213 211 216 221 225 227 226 227 229 232 238 241 243 245 244 248 250 251 249 249 253 256 260 264 271 275 281 281 285 287 293 286
230 233 237 234 223 221 211 196 204 215 213 207 209 215 221 227 228 229 234 232 233 239 248 251 251 241 242 248 251 251 251 249 251 255 260 260 270 280 288 285 285 287 287
243 237 235 231 221 213 200 192 202 207 207 211 216 219 227 229 220 224 231 238 238 239 242 247 255 252 249 250 250 248 248 246 248 253 257 262 270 273 278 282 280 281 283
252 241 231 223 225 209 197 201 198 197 205 214 219 221 229 229 215 221 237 239 246 243 240 244 251 256 253 254 261 266 270 267 257 254 257 265 270 272 272 277 282 286 284
255 249 236 217 212 206 202 204 203 195 204 218 221 218 226 235 212 213 237 237 239 251 248 248 250 252 250 246 255 266 280 288 277 260 265 268 271 271 269 271 269 273 281
261 258 245 225 208 207 208 205 210 206 204 208 227 232 233 241 223 219 228 231 238 252 256 254 247 254 258 250 247 250 265 279 285 287 275 271 272 267 265 262 261 263 274
271 261 242 224 212 207 198 197 192 191 186 183 209 238 237 237 223 227 239 236 239 246 248 256 256 252 258 257 259 256 262 278 277 274 276 278 281 282 284 279 272 266 269
260 240 228 224 212 192 178 184 190 187 184 183 197 239 265 256 238 233 236 244 255 251 254 261 262 263 262 262 270 264 272 277 265 265 269 276 283 290 290 286 280 275 271
248 232 227 218 209 193 184 184 193 196 196 198 205 217 250 273 257 249 245 232 242 259 260 265 275 280 288 273 256 271 274 265 262 265 271 279 285 285 287 288 285 279 283
238 237 224 211 198 194 198 193 198 204 206 205 205 221 243 260 263 257 248 208 208 233 248 246 263 278 276 274 279 286 280 269 264 263 268 275 281 282 282 285 286 290 293
237 236 227 216 203 203 205 205 213 223 222 222 221 222 227 241 257 279 277 263 247 232 258 254 255 260 267 274 280 284 276 267 268 264 264 269 276 278 283 290 288 287 281
229 234 228 221 217 206 195 202 208 233 245 247 246 245 248 253 257 264 279 290 265 243 251 244 248 254 261 267 271 273 272 267 265 266 263 262 268 275 283 287 286 283 285
236 241 233 224 218 200 197 202 220 238 218 226 237 245 255 252 245 245 250 258 246 239 236 239 246 252 257 262 266 269 271 275 270 263 262 262 264 270 276 278 282 286 289
243 243 232 227 225 210 203 206 211 220 235 250 247 243 242 238 236 232 234 244 233 232 237 241 247 250 254 259 263 266 270 270 264 264 263 262 260 262 269 274 274 281 287
241 235 232 226 222 218 203 204 210 218 226 248 275 260 232 231 229 223 219 229 240 248 252 252 249 250 256 260 261 261 262 264 263 263 262 261 260 260 266 272 274 279 281
241 238 233 215 209 212 205 203 207 211 216 231 243 256 263 248 237 233 233 239 244 250 255 255 254 253 256 259 261 259 260 261 261 260 262 263 262 260 264 267 268 275 280
241 227 220 214 208 209 210 212 212 212 217 228 244 254 262 254 252 254 247 248 253 254 256 258 257 255 253 256 258 257 258 261 262 263 264 264 263 262 266 266 270 272 275
236 226 220 217 209 207 209 212 216 217 221 233 251 263 263 268 263 259 255 257 264 262 256 253 255 253 253 252 255 256 256 258 261 261 262 262 260 259 260 262 265 270 273
229 223 220 211 206 206 212 212 216 221 228 238 246 255 259 265 269 268 269 270 268 265 260 255 255 258 261 259 255 253 253 255 257 258 259 256 257 258 258 257 259 269 274
222 218 216 211 207 214 218 221 222 226 232 240 246 253 258 266 274 279 283 281 275 271 269 264 261 261 267 270 263 257 258 262 256 246 248 250 253 258 258 256 259 265 273
218 218 219 213 209 213 219 223 226 228 232 239 247 253 258 266 273 280 282 281 281 276 277 277 270 266 269 271 270 270 270 269 259 250 240 238 246 248 248 250 254 262 270
219 221 221 216 213 213 216 222 231 238 242 246 252 254 256 263 271 276 277 276 282 281 283 281 276 276 277 275 274 277 275 269 259 252 240 230 235 237 239 243 250 251 258
Height
1470 1470 1471 1472 1473 1474 1475 1476 1476 1477 1478 1478 1479 1480 1481 1481 1482 1482 1483 1484 1484 1484 1485 1485 1485 1486 1486 1485 1485 1485 1486 1486 1484 1483 1483 1482 1481 1480 1478 1477 1476 1474 1473
1466 1467 1467 1468 1469 1470 1470 1471 1472 1472 1473 1474 1475 1476 1476 1477 1477 1478 1479 1479 1480 1480 1481 1481 1481 1481 1481 1481 1481 1481 1481 1481 1480 1479 1478 1478 1477 1476 1474 1473 1472 1470 1469
1463 1463 1463 1464 1465 1465 1466 1467 1467 1468 1469 1470 1471 1472 1472 1473 1473 1474 1475 1475 1476 1476 1477 1477 1477 1477 1477 1477 1477 1477 1477 1476 1476 1475 1474 1474 1473 1472 1470 1469 1468 1466 1465
1460 1460 1460 1460 1461 1461 1462 1462 1463 1463 1464 1465 1466 1467 1468 1469 1469 1470 1471 1471 1472 1472 1473 1473 1473 1473 1473 1473 1473 1473 1473 1472 1472 1471 1470 1470 1469 1468 1467 1465 1464 1463 1461
1456 1456 1456 1457 1457 1457 1458 1458 1459 1459 1460 1461 1462 1463 1464 1465 1466 1466 1467 1467 1467 1468 1468 1469 1469 1469 1469 1469 1469 1469 1469 1468 1468 1467 1466 1466 1465 1464 1463 1462 1460 1459 1457
1453 1453 1453 1453 1453 1454 1454 1454 1455 1455 1456 1457 1458 1459 1460 1461 1462 1463 1463 1463 1464 1464 1464 1465 1465 1465 1465 1465 1465 1465 1465 1464 1464 1464 1463 1462 1461 1461 1460 1459 1457 1456 1454
1450 1450 1450 1450 1450 1450 1451 1451 1451 1452 1453 1454 1455 1456 1457 1458 1458 1459 1459 1460 1460 1460 1460 1460 1461 1461 1461 1461 1461 1461 1460 1460 1460 1460 1459 1458 1458 1457 1457 1456 1454 1453 1451
1448 1448 1448 1447 1447 1447 1448 1448 1449 1449 1450 1451 1452 1452 1453 1454 1455 1455 1456 1456 1456 1456 1457 1457 1457 1457 1457 1457 1457 1457 1456 1456 1456 1456 1456 1455 1455 1454 1453 1452 1451 1449 1447
1445 1445 1445 1445 1444 1445 1445 1445 1446 1447 1447 1448 1449 1449 1450 1451 1451 1452 1452 1452 1452 1453 1453 1453 1454 1454 1454 1454 1453 1453 1452 1452 1452 1452 1452 1451 1451 1450 1449 1448 1447 1446 1444
1443 1443 1443 1443 1443 1443 1443 1443 1444 1445 1445 1445 1446 1447 1447 1448 1448 1449 1449 1449 1449 1450 1450 1450 1451 1451 1451 1451 1450 1450 1449 1449 1449 1448 1448 1447 1446 1446 1445 1445 1444 1443 1441
1441 1441 1440 1441 1441 1441 1441 1442 1442 1442 1443 1443 1444 1445 1445 1445 1446 1446 1446 1447 1447 1447 1447 1448 1448 1448 1448 1448 1447 1447 1446 1446 1445 1445 1444 1443 1443 1442 1441 1441 1440 1439 1438
1439 1438 1438 1438 1439 1439 1439 1440 1440 1441 1441 1441 1442 1442 1442 1443 1444 1444 1444 1444 1445 1445 1445 1445 1445 1445 1445 1445 1444 1444 1444 1443 1442 1441 1441 1440 1439 1438 1438 1437 1436 1436 1434
1436 1436 1436 1436 1436 1437 1437 1438 1438 1439 1439 1439 1440 1440 1440 1441 1441 1442 1442 1442 1442 1442 1442 1443 1443 1443 1442 1442 1441 1441 1441 1440 1439 1438 1437 1437 1436 1435 1434 1434 1433 1432 1431
1434 1434 1434 1434 1434 1435 1435 1436 1436 1436 1437 1437 1437 1437 1438 1438 1439 1439 1439 1440 1440 1440 1440 1440 1440 1440 1439 1439 1438 1438 1438 1437 1436 1435 1434 1434 1433 1433 1432 1431 1430 1429 1428
1432 1432 1431 1432 1432 1432 1433 1433 1434 1434 1434 1435 1435 1435 1435 1435 1436 1437 1437 1437 1437 1437 1437 1437 1437 1437 1436 1436 1435 1435 1434 1434 1433 1433 1432 1431 1430 1430 1429 1428 1428 1426 1425
1430 1429 1429 1429 1429 1429 1430 1431 1431 1432 1432 1433 1433 1433 1433 1434 1434 1434 1435 1435 1435 1435 1435 1435 1434 1434 1434 1433 1432 1432 1431 1431 1430 1430 1429 1428 1428 1427 1426 1426 1425 1424 1423
1427 1427 1427 1427 1427 1427 1427 1428 1428 1430 1430 1431 1431 1431 1431 1431 1432 1432 1432 1432 1433 1433 1432 1432 1432 1431 1431 1431 1430 1429 1429 1428 1428 1427 1426 1426 1425 1425 1424 1423 1422 1422 1421
1425 1425 1424 1424 1425 1425 1425 1426 1426 1427 1427 1428 1429 1429 1429 1429 1429 1429 1430 1430 1430 1430 1429 1429 1429 1429 1428 1428 1427 1427 1426 1425 1425 1424 1424 1423 1423 1422 1422 1421 1420 1420 1419
1422 1422 1422 1422 1423 1423 1423 1424 1425 1425 1425 1426 1426 1427 1427 1426 1427 1427 1427 1427 1427 1427 1427 1426 1426 1426 1425 1425 1425 1424 1423 1422 1422 1422 1421 1421 1420 1420 1419 1419 1418 1417 1417
1420 1420 1420 1420 1421 1421 1421 1422 1423 1423 1423 1424 1424 1424 1424 1424 1424 1424 1424 1424 1424 1424 1424 1424 1423 1423 1423 1422 1422 1421 1420 1420 1420 1419 1419 1418 1418 1418 1417 1416 1416 1415 1415
1417 1418 1418 1418 1419 1419 1420 1420 1421 1421 1421 1422 1422 1422 1422 1422 1422 1422 1422 1422 1422 1421 1421 1421 1420 1420 1420 1419 1419 1418 1418 1417 1417 1417 1416 1416 1416 1415 1415 1414 1414 1413 1413
1415 1415 1416 1416 1417 1418 1418 1419 1419 1419 1420 1420 1420 1421 1421 1420 1420 1420 1420 1419 1419 1419 1418 1418 1417 1417 1417 1416 1416 1415 1415 1415 1415 1414 1414 1414 1413 1413 1413 1412 1412 1411 1411
1414 1414 1414 1415 1415 1416 1416 1417 1417 1418 1418 1418 1418 1418 1418 1418 1418 1418 1417 1417 1416 1416 1416 1415 1415 1414 1414 1414 1413 1413 1413 1412 1412 1412 1411 1411 1411 1411 1411 1410 1410 1409 1409
1412 1412 1413 1413 1414 1414 1415 1415 1415 1416 1416 1416 1416 1416 1416 1416 1416 1415 1415 1414 1414 1414 1413 1412 1412 1412 1411 1411 1411 1410 1410 1410 1410 1409 1409 1409 1409 1409 1408 1408 1408 1408 1407
1410 1411 1411 1412 1412 1413 1413 1413 1413 1414 1414 1414 1414 1414 1414 1414 1414 1413 1413 1412 1412 1411 1410 1410 1410 1409 1409 1409 1408 1408 1408 1407 1407 1407 1407 1407 1407 1406 1406 1406 1406 1406 1405
1409 1409 1410 1410 1410 1411 1411 1411 1411 1411 1411 1411 1412 1412 1412 1411 1411 1411 1410 1410 1409 1409 1408 1408 1408 1407 1407 1406 1406 1406 1405 1405 1405 1405 1404 1404 1405 1405 1405 1405 1404 1404 1404